This demonstration page uses our WeatherBlox Daily Observations layout. Learn more.

Left ArrowRight Arrow

36.17497, -115.13722

Hourly Observations for September 24, 2015

Temp ( °F °C ) Dew Point ( °F °C ) Humidity (%) Winds ( mph kmh ) Pressure ( in mb ) Visibility ( mi km ) Precip ( " mm )
12:53 am 00:53 Clear 81 27.2 46 7.8 29 29 NNW 8 13 29.91 1013 10 16 N/A
1:53 am 01:53 Clear 80 26.7 46 7.8 30 30 WNW 8 13 29.91 1013 10 16 N/A
2:53 am 02:53 Clear 76 24.4 46 7.8 35 35 SE 3 6 29.92 1013 10 16 N/A
3:53 am 03:53 Clear 79 26.1 46 7.8 31 31 NW 5 7 29.91 1013 10 16 N/A
4:53 am 04:53 Clear 82 27.8 43 6.1 25 25 NNE 9 15 29.92 1013 10 16 N/A
5:53 am 05:53 Clear 77 25 44 6.7 31 31 NW 9 15 29.93 1014 10 16 N/A
6:53 am 06:53 Sunny 78 25.6 44 6.7 30 30 NW 5 7 29.96 1014 10 16 N/A
7:53 am 07:53 Sunny 80 26.7 45 7.2 29 29 N N/A 29.98 1015 10 16 N/A
8:53 am 08:53 Sunny 85 29.4 43 6.1 23 23 NNW 5 7 29.99 1016 10 16 N/A
9:53 am 09:53 Sunny 89 31.7 44 6.7 21 21 N 5 7 29.99 1016 10 16 N/A
10:53 am 10:53 Sunny 92 33.3 46 7.8 21 21 N N/A 29.99 1016 10 16 N/A
11:53 am 11:53 Sunny 94 34.4 47 8.3 20 20 VRB 3 6 29.97 1015 10 16 N/A
12:53 pm 12:53 Sunny 97 36.1 45 7.2 17 17 E 5 7 29.94 1014 10 16 N/A
1:53 pm 13:53 Sunny 98 36.7 46 7.8 17 17 VRB 3 6 29.91 1013 10 16 N/A
2:53 pm 14:53 Sunny 99 37.2 42 5.6 14 14 S 5 7 29.89 1012 10 16 N/A
3:53 pm 15:53 Sunny 100 37.8 39 3.9 12 12 N N/A 29.87 1012 10 16 N/A
4:53 pm 16:53 Sunny 100 37.8 38 3.3 12 12 N N/A 29.86 1011 10 16 N/A
5:53 pm 17:53 Sunny 99 37.2 37 2.8 12 12 W 3 6 29.86 1011 10 16 N/A
6:53 pm 18:53 Clear 97 36.1 38 3.3 13 13 NNW 5 7 29.86 1011 10 16 N/A
7:53 pm 19:53 Clear 92 33.3 40 4.4 16 16 NW 5 7 29.88 1012 10 16 N/A
8:53 pm 20:53 Clear 89 31.7 42 5.6 19 19 NNW 5 7 29.88 1012 10 16 N/A
9:53 pm 21:53 Clear 86 30 41 5 20 20 NW 7 11 29.89 1012 10 16 N/A
10:53 pm 22:53 Clear 84 28.9 40 4.4 21 21 NW 3 6 29.89 1012 10 16 N/A
11:53 pm 23:53 Clear 82 27.8 42 5.6 24 24 NW 6 9 29.89 1012 10 16 N/A

Powered by AerisWeather